Calldetenes (Osona)





Hora UTC 04:25
Temperatura 12.6 ºC
Humitat 87.0 %
Pressió 1011.8 hPa
Pluja 0.0 mm
Velocitat vent 0.0 km/h
Direcció vent

Dades diàries 2024-05-30



Hora UTC (hivern +1h; estiu +2h)
Temperatura (ºC) Humitat (%) Pressió (hPa) Velocitat vent (km/h) Precipitació (mm)
Hora UTC Aire Humitat Pressió Vel. Dir. Vel. Max Dir. Intent. màx 5 min.
00:05 16.8 80.0 1013.6 0.0 0.0 0.0
00:15 16.6 80.0 1013.6 0.0 0.0 0.0
00:25 16.4 81.0 1013.5 0.0 0.0 0.0
00:35 16.2 81.0 1013.5 0.0 0.0 0.0
00:45 16.0 81.0 1013.4 0.0 0.0 0.0
00:55 15.7 82.0 1013.3 0.0 0.0 0.0
01:05 15.2 82.0 1013.2 0.0 0.0 0.0
01:15 14.6 83.0 1013.1 0.0 0.0 0.0
01:25 14.4 84.0 1013.0 0.0 0.0 0.0
01:35 14.2 84.0 1013.0 0.0 0.0 0.0
01:45 14.2 85.0 1012.8 0.0 0.0 0.0
01:55 13.9 85.0 1012.7 0.0 0.0 0.0
02:05 13.7 85.0 1012.6 0.0 0.0 0.0
02:15 13.6 86.0 1012.6 0.0 0.0 0.0
02:25 13.6 86.0 1012.7 0.0 0.0 0.0
02:35 13.4 86.0 1012.4 0.0 0.0 0.0
02:45 13.3 86.0 1012.3 0.0 0.0 0.0
02:55 13.2 86.0 1012.3 0.0 0.0 0.0
03:15 13.2 86.0 1012.0 0.0 0.0 0.0
03:25 13.0 87.0 1012.0 0.0 0.0 0.0
03:35 12.9 87.0 1011.9 0.0 0.0 0.0
03:45 12.9 87.0 1011.7 0.0 0.0 0.0
03:55 13.0 87.0 1011.6 0.0 0.0 0.0
04:05 13.1 87.0 1011.5 0.0 0.0 0.0
04:15 12.7 86.0 1011.7 0.0 0.0 0.0
04:25 12.6 87.0 1011.8 0.0 0.0 0.0
Màxima 16.8 87.0 1013.6 0.0 0.0 0.0
Mínima 12.6 80.0 1011.5
Total 0.0